World > North America > United States > Illinois > Cornerville  

Cornerville, IL Hourly Weather Updates

Feedback E-mail the Weather

Quick Clicks

Cornerville, IL Weather Maps

°F °C°F °C
Cornerville Weather Map
UTC Time: 4/15/2024, 21:37
Your Time:

Cornerville, IL Regional Weather

Expires:202404152200;;801590
ASUS43 KLOT 152110
RWRIL 

ILLINOIS REGIONAL WEATHER ROUNDUP
NATIONAL WEATHER SERVICE CHICAGO/ROMEOVILLE IL
400 PM CDT MON APR 15 2024

NOTE: "FAIR" INDICATES FEW OR NO CLOUDS BELOW 12,000 FEET WITH NO
SIGNIFICANT WEATHER AND/OR OBSTRUCTIONS TO VISIBILITY.

* THESE STATIONS ARE NOT UNDER NWS QUALITY CONTROL. THEY ALSO MAY NOT
  REPORT WEATHER SUCH AS PRECIPITATION OR FOG.


ILZ064>066-069>071-074>076-080>082-084>086-088>090-092>094-152200-
SOUTH-CENTRAL ILLINOIS
  
CITY           SKY/WX    TMP DP  RH WIND       PRES   REMARKS
CARBONDALE     MOSUNNY   86  64  47 S13G20    29.89S HX  87  TC  30   
CAIRO*         MOSUNNY   84  65  51 W10       29.93S HX  86  TC  29   
EFFINGHAM*     MOSUNNY   84  52  32 CALM      29.93S HX  82  TC  29   
MARION         MOSUNNY   84  66  54 S13       29.90F HX  86  TC  29   
MT. VERNON     PTSUNNY   87  64  46 S7        29.89F HX  88  TC  31   
CENTRALIA*     PTSUNNY   85  63  46 S5        29.89F HX  86  TC  30   
SALEM*         PTSUNNY   86  60  41 S6        29.89F HX  86  TC  30   
METROPOLIS*    MOSUNNY   82  65  55 S7        29.93S HX  83  TC  28   
$$


SKY/WX - Weather  TMP - Temperature  DP - Dew Point  RH - Humidity
WIND - Wind Direction/Speed PRES - Barometric Pressure VSB - Visibility
WCI - Wind Chill Index E13G22 Wind - East Wind 13 mph/Gusts of 22 mph

Trending Headlines

Trending Entertainment Headlines

Cornerville Radar Loop

Use the map search tool if you want to place a location marker on the radar map...

Cornerville Quick Facts

National Two Day Weather Forecast


E-mail the Cornerville Weather Forecast

Voice your opinion or tell us about page issues...